Flag for U.S.A. Weather past 2 weeks in Manhattan, Kansas, U.S.A.

Now
65 °F

Clear.


Feels Like: 65 °F
Forecast: 58 / 77 °F
Wind: 7 mph from Southwest

Location: Manhattan Municipal Airport

Current Time: May 24, 2015 at 11:04:18 PM

Latest Report: May 24, 2015 at 9:52 PM


Visibility: 10 mi

Pressure: 29.78 "Hg

Humidity: 87%

Dew point: 61 °F

Location of ManhattanLocation

Historic Weather in Manhattan — Graph

°F

Manhattan temperature yesterday

Maximum temperature yesterday: 64 °F (at 10:52 PM)
Minimum temperature yesterday: 57 °F (at 3:52 AM)
Average temperature yesterday: 61 °F

Past Weeks' High & Low Weather Summary

 TemperatureHumidityPressure
High82 °F (May 17, 4:52 PM)100% (May 12, 5:52 AM)30.34 "Hg (May 12, 5:52 AM)
Low37 °F (May 12, 5:52 AM)30% (May 12, 2:52 PM)29.59 "Hg (May 17, 4:52 AM)
Average60 °F77%30.04 "Hg
* Reported May 9 8:52 PM — May 24 8:52 PM, Manhattan, Weather by CustomWeather, © 2015

Note: Actual official high and low records may vary slightly from our data, if they occured in-between our weather recording intervals... More about our weather records

Advertising

Manhattan weather history for previous 24 hours

 ConditionsComfort  
Time TempWeatherWind HumidityBarometerVisibility
8:52 PM
Sun, May 24
64 °FSunny.6 mph90%29.78 "Hg10 mi
7:52 PM66 °FPassing clouds.6 mph84%29.79 "Hg10 mi
6:52 PM67 °FScattered clouds.7 mph85%29.80 "Hg10 mi
6:04 PM68 °FBroken clouds.8 mph82%29.83 "Hg10 mi
5:52 PM68 °FPartly sunny.8 mph84%29.82 "Hg10 mi
4:52 PM69 °FOvercast.8 mph79%29.83 "Hg10 mi
3:52 PM69 °FPartly sunny.15 mph79%29.83 "Hg10 mi
2:52 PM70 °FPartly sunny.10 mph73%29.82 "Hg10 mi
1:52 PM70 °FLight rain. Broken clouds.9 mph73%29.83 "Hg10 mi
12:52 PM68 °FOvercast.6 mph84%29.85 "Hg10 mi
11:52 AM67 °FMostly cloudy.7 mph85%29.86 "Hg10 mi
10:52 AM66 °FPassing clouds.8 mph87%29.85 "Hg10 mi
9:52 AM65 °FSunny.6 mph91%29.85 "Hg10 mi
8:52 AM63 °FPartly sunny.7 mph97%29.85 "Hg10 mi
7:52 AM62 °FPartly sunny.8 mph100%29.88 "Hg10 mi
6:52 AM62 °FPassing clouds.7 mph100%29.89 "Hg8 mi
5:52 AM62 °FFog.No wind100%29.84 "Hg0 mi
4:52 AM63 °FLow clouds.No wind97%29.85 "Hg10 mi
3:52 AM63 °FLow clouds.No wind97%29.83 "Hg10 mi
3:04 AM63 °FFog.No wind97%29.85 "Hg4 mi
2:52 AM63 °FLight rain. Fog.No wind97%29.84 "Hg2 mi
1:52 AM63 °FOvercast.3 mph97%29.87 "Hg9 mi
12:52 AM63 °FOvercast.3 mph97%29.91 "Hg10 mi
11:52 PM
Sat, May 23
64 °FOvercast.5 mph90%29.92 "Hg10 mi
Weather by CustomWeather, © 2015

See weather overviewHow to use our weather pages